Location: Saint-Gilles les Bains
(21.0539°S, 55.2287°E)
Time: 09:54:35
(UTC+04:00)

Hubble Space Telescope - Visible Passes

Search period start: 19 February 2019 00:00
Search period end: 01 March 2019 00:00
Orbit: 537 x 540 km, 28.5° (Epoch: 18 February)

Date Brightness Start Highest point End Pass type
(mag) Time Alt. Az. Time Alt. Az. Time Alt. Az.
19 Feb 2.0 04:39:27 26° SW 04:41:02 36° S 04:44:54 10° ESE visible
20 Feb 1.7 04:29:54 37° SSW 04:30:40 41° SSE 04:34:36 10° E visible
21 Feb 1.5 04:20:27 48° SSE 04:20:27 48° SSE 04:24:18 10° E visible
22 Feb 2.1 04:11:08 39° ESE 04:11:08 39° ESE 04:13:57 10° E visible
22 Feb 1.5 05:47:11 10° W 05:51:00 35° NNW 05:54:47 10° NE visible
23 Feb 2.9 04:01:55 23° E 04:01:55 23° E 04:03:34 10° ENE visible
23 Feb 1.9 05:37:18 12° W 05:40:29 26° NNW 05:43:59 10° NNE visible
24 Feb 3.7 03:52:48 12° ENE 03:52:48 12° ENE 03:53:08 10° ENE visible
24 Feb 2.3 05:28:12 15° WNW 05:29:59 20° NNW 05:33:02 10° NNE visible
24 Feb 2.8 19:09:49 10° N 19:11:43 13° NNE 19:13:37 10° ENE visible
24 Feb 2.9 20:48:32 10° NW 20:49:58 20° NW 20:49:58 20° NW visible
25 Feb 2.6 05:19:08 15° NW 05:19:28 15° NNW 05:21:50 10° N visible
25 Feb 1.8 20:38:00 10° WNW 20:40:45 40° WNW 20:40:45 40° WNW visible
26 Feb 0.8 20:27:32 10° WNW 20:31:25 75° W 20:31:25 75° W visible
27 Feb 1.0 20:17:08 10° W 20:21:16 66° SSW 20:21:58 54° SSE visible
28 Feb 1.3 20:06:46 10° W 20:10:51 53° SSW 20:12:23 33° SE visible
